Regional Weather Roundup
Issued by NWS Kansas City/Pleasant Hill, MO

Home | Current Version | Previous Version | Graphics & Text | Print | Product List | Glossary Off
Versions: 1 2 3 4 5 6 7 8 9 10 11 12 13 14 15 16 17 18 19 20 21 22 23 24 25 26 27

000
ASUS43 KEAX 261710
RWREAX

WEATHER ROUNDUP FOR EASTERN KANSAS AND NORTHWEST MISSOURI
NATIONAL WEATHER SERVICE KANSAS CITY/PLEASANT HILL MO
1200 PM CDT THU APR 26 2018

KSZ040-057-103>105-MOZ028-029-037-043-261800-
...KANSAS CITY METROPOLITAN AREA...

CITY           SKY/WX    TMP DP  RH WIND       PRES   REMARKS
K.C. INTL      PTSUNNY   59  42  53 SW10      30.01F
K.C. DOWNTOWN  SUNNY     60  41  49 CALM      30.01S
LEES SUMMIT    SUNNY     59  43  55 SW6       30.01F
OLATHE - IXD   SUNNY     58  44  60 MISG      30.03S
OLATHE - OJC   SUNNY     57  42  57 VRB3      30.02S
LAWRENCE       SUNNY     59  45  59 CALM      30.02F

$$

MOZ001>008-011>017-020>025-030>033-038>040-044>046-053-054-261800-
...NORTHERN AND CENTRAL MISSOURI...

CITY           SKY/WX    TMP DP  RH WIND       PRES   REMARKS
ST. JOSEPH     CLOUDY    61  43  51 W7        30.01S
MOSBY            N/A     61  41  48 W3        30.01S
WARRENSBURG    MOSUNNY   59  41  51 N6        30.01F
WHITEMAN AFB   NOT AVBL
CLINTON        SUNNY     59  43  55 NW5       30.02S
SEDALIA        SUNNY     62  44  51 N8        30.01S
WARSAW         NOT AVBL
CHILLICOTHE      N/A     62  38  40 VRB3      30.00S
KIRKSVILLE     SUNNY     64  33  31 CALM      29.97F

$$

MOZ041-047>049-056>058-063>065-088>090-097-261800-
...EASTERN AND SOUTHERN MISSOURI...

CITY           SKY/WX    TMP DP  RH WIND       PRES   REMARKS
ST. LOUIS INTL MOSUNNY   64  36  35 CALM      29.96F
SPIRIT OF STL  MOSUNNY   65  42  43 VRB6      29.95F
COLUMBIA       CLOUDY    64  44  48 N8        29.98S
JEFFERSON CITY SUNNY     61  46  57 SW5       29.98F
ROLLA          MOSUNNY   59  47  64 VRB6      29.99F
OSAGE BEACH    MOSUNNY   60  47  61 VRB3      30.01S
SPRINGFIELD    CLOUDY    56  47  71 NW7       30.01S
BRANSON        CLOUDY    54  50  87 N10       30.02R
JOPLIN         CLOUDY    53  48  83 N7        30.05F
WEST PLAINS    CLOUDY    57  47  69 N9        29.99R

$$

IAZ060-094-KSZ022-034>040-054-083-096-NEZ052-066-093-261800-
...KANSAS...SOUTHEAST NEBRASKA AND IOWA...

CITY           SKY/WX    TMP DP  RH WIND       PRES   REMARKS
TOPEKA         CLOUDY    59  45  59 MISG      30.02F
MANHATTAN      MOSUNNY   59  42  53 S6        30.03R
EMPORIA        SUNNY     57  44  62 CALM      30.03S
CHANUTE        SUNNY     58  46  64 W5        30.03F
WICHITA        CLOUDY    59  43  55 VRB3      30.02S
OMAHA          PTSUNNY   62  36  37 S9        29.96F
LINCOLN        MOSUNNY   64  39  39 W12G21    29.99S
FALLS CITY     CLOUDY    60  42  51 W8        30.00S
LAMONI         CLOUDY    63  34  33 W7        29.98R
DES MOINES     CLOUDY    65  32  29 W9        29.95F

$$





USA.gov is the U.S. government's official web portal to all federal, state and local government web resources and services.